Time,TemperatureF,DewpointF,PressureIn,WindDirection,WindDirectionDegrees,WindSpeedMPH,WindSpeedGustMPH,Humidity,HourlyPrecipIn,Conditions,Clouds,dailyrainin,SolarRadiationWatts/m^2,SoftwareType,DateUTC
2013-07-31 00:01:00,61.0,53.0,-100.00,NNE,13,2.0,7.0,76,0.00,,,0.00,0.000000,,2013-07-31 07:01:00,
2013-07-31 00:32:00,61.0,53.0,-100.00,NNE,13,2.0,7.0,76,0.00,,,0.00,0.000000,,2013-07-31 07:32:00,
2013-07-31 00:43:00,61.0,53.0,-100.00,NNE,13,2.0,7.0,76,0.00,,,0.00,0.000000,,2013-07-31 07:43:00,
2013-07-31 00:52:00,61.0,53.0,-100.00,NNE,13,2.0,7.0,76,0.00,,,0.00,0.000000,,2013-07-31 07:52:00,
2013-07-31 01:01:00,60.0,57.0,-100.00,East,85,2.0,4.0,89,0.00,,,0.00,0.000000,,2013-07-31 08:01:00,
2013-07-31 01:33:00,60.0,57.0,-100.00,East,85,2.0,4.0,89,0.00,,,0.00,0.000000,,2013-07-31 08:33:00,
2013-07-31 01:42:00,60.0,57.0,-100.00,East,85,2.0,4.0,89,0.00,,,0.00,0.000000,,2013-07-31 08:42:00,
2013-07-31 01:53:00,60.0,57.0,-100.00,East,85,2.0,4.0,89,0.00,,,0.00,0.000000,,2013-07-31 08:53:00,
2013-07-31 02:01:00,58.0,52.0,-100.00,NNW,335,2.0,4.0,79,0.00,,,0.00,0.000000,,2013-07-31 09:01:00,
2013-07-31 02:32:00,58.0,52.0,-100.00,NNW,335,2.0,4.0,79,0.00,,,0.00,0.000000,,2013-07-31 09:32:00,
2013-07-31 02:44:00,58.0,52.0,-100.00,NNW,335,2.0,4.0,79,0.00,,,0.00,0.000000,,2013-07-31 09:44:00,
2013-07-31 02:52:00,58.0,52.0,-100.00,NNW,335,2.0,4.0,79,0.00,,,0.00,0.000000,,2013-07-31 09:52:00,
2013-07-31 03:01:00,56.0,50.0,-100.00,NE,39,3.0,4.0,80,0.00,,,0.00,0.000000,,2013-07-31 10:01:00,
2013-07-31 03:22:00,56.0,50.0,-100.00,NE,39,3.0,4.0,80,0.00,,,0.00,0.000000,,2013-07-31 10:22:00,
2013-07-31 03:32:00,56.0,50.0,-100.00,NE,39,3.0,4.0,80,0.00,,,0.00,0.000000,,2013-07-31 10:32:00,
2013-07-31 03:44:00,56.0,50.0,-100.00,NE,39,3.0,4.0,80,0.00,,,0.00,0.000000,,2013-07-31 10:44:00,
2013-07-31 03:52:00,56.0,50.0,-100.00,NE,39,3.0,4.0,80,0.00,,,0.00,0.000000,,2013-07-31 10:52:00,
2013-07-31 04:01:00,57.0,52.0,-100.00,North,10,2.0,6.0,84,0.00,,,0.00,0.000000,,2013-07-31 11:01:00,
2013-07-31 04:33:00,57.0,52.0,-100.00,North,10,2.0,6.0,84,0.00,,,0.00,0.000000,,2013-07-31 11:33:00,
2013-07-31 04:43:00,57.0,52.0,-100.00,North,10,2.0,6.0,84,0.00,,,0.00,0.000000,,2013-07-31 11:43:00,
2013-07-31 04:53:00,57.0,52.0,-100.00,North,10,2.0,6.0,84,0.00,,,0.00,0.000000,,2013-07-31 11:53:00,
2013-07-31 05:01:00,58.0,50.0,-100.00,NNW,348,2.0,5.0,75,0.00,,,0.00,0.000000,,2013-07-31 12:01:00,
2013-07-31 05:22:00,58.0,50.0,-100.00,NNW,348,2.0,5.0,75,0.00,,,0.00,0.000000,,2013-07-31 12:22:00,
2013-07-31 05:33:00,58.0,50.0,-100.00,NNW,348,2.0,5.0,75,0.00,,,0.00,0.000000,,2013-07-31 12:33:00,
2013-07-31 05:43:00,58.0,50.0,-100.00,NNW,348,2.0,5.0,75,0.00,,,0.00,0.000000,,2013-07-31 12:43:00,
2013-07-31 05:52:00,58.0,50.0,-100.00,NNW,348,2.0,5.0,75,0.00,,,0.00,0.000000,,2013-07-31 12:52:00,
2013-07-31 06:01:00,59.0,50.0,-100.00,NNW,341,2.0,4.0,72,0.00,,,0.00,0.000000,,2013-07-31 13:01:00,
2013-07-31 06:33:00,59.0,50.0,-100.00,NNW,341,2.0,4.0,72,0.00,,,0.00,0.000000,,2013-07-31 13:33:00,
2013-07-31 06:43:00,59.0,50.0,-100.00,NNW,341,2.0,4.0,72,0.00,,,0.00,0.000000,,2013-07-31 13:43:00,
2013-07-31 06:53:00,59.0,50.0,-100.00,NNW,341,2.0,4.0,72,0.00,,,0.00,0.000000,,2013-07-31 13:53:00,
2013-07-31 07:01:00,57.0,45.0,-100.00,NNE,25,2.0,4.0,65,0.00,,,0.00,0.000000,,2013-07-31 14:01:00,
2013-07-31 07:34:00,57.0,45.0,-100.00,NNE,25,2.0,4.0,65,0.00,,,0.00,0.000000,,2013-07-31 14:34:00,
2013-07-31 07:43:00,57.0,45.0,-100.00,NNE,25,2.0,4.0,65,0.00,,,0.00,0.000000,,2013-07-31 14:43:00,
2013-07-31 07:53:00,57.0,45.0,-100.00,NNE,25,2.0,4.0,65,0.00,,,0.00,0.000000,,2013-07-31 14:53:00,
2013-07-31 08:33:00,63.0,48.0,-100.00,ENE,60,2.0,4.0,59,0.00,,,0.00,68.000000,,2013-07-31 15:33:00,
2013-07-31 08:44:00,63.0,48.0,-100.00,ENE,60,2.0,4.0,59,0.00,,,0.00,68.000000,,2013-07-31 15:44:00,
2013-07-31 08:53:00,63.0,48.0,-100.00,ENE,60,2.0,4.0,59,0.00,,,0.00,68.000000,,2013-07-31 15:53:00,
2013-07-31 09:01:00,60.0,45.0,-100.00,North,10,0.0,3.0,57,0.00,,,0.00,154.000000,,2013-07-31 16:01:00,
2013-07-31 09:33:00,60.0,45.0,-100.00,North,10,0.0,3.0,57,0.00,,,0.00,154.000000,,2013-07-31 16:33:00,
2013-07-31 09:44:00,60.0,45.0,-100.00,North,10,0.0,3.0,57,0.00,,,0.00,154.000000,,2013-07-31 16:44:00,
2013-07-31 09:52:00,60.0,45.0,-100.00,North,10,0.0,3.0,57,0.00,,,0.00,154.000000,,2013-07-31 16:52:00,
2013-07-31 10:01:00,64.0,45.0,-100.00,NNE,17,1.0,3.0,51,0.00,,,0.00,316.000000,,2013-07-31 17:01:00,
2013-07-31 10:33:00,64.0,45.0,-100.00,NNE,17,1.0,3.0,51,0.00,,,0.00,316.000000,,2013-07-31 17:33:00,
2013-07-31 11:01:00,64.0,47.0,-100.00,NNW,348,1.0,4.0,55,0.00,,,0.00,472.000000,,2013-07-31 18:01:00,
2013-07-31 11:23:00,64.0,47.0,-100.00,NNW,348,1.0,4.0,55,0.00,,,0.00,472.000000,,2013-07-31 18:23:00,
2013-07-31 11:33:00,64.0,47.0,-100.00,NNW,348,1.0,4.0,55,0.00,,,0.00,472.000000,,2013-07-31 18:33:00,
2013-07-31 11:43:00,64.0,47.0,-100.00,NNW,348,1.0,4.0,55,0.00,,,0.00,472.000000,,2013-07-31 18:43:00,
2013-07-31 11:52:00,64.0,47.0,-100.00,NNW,348,1.0,4.0,55,0.00,,,0.00,472.000000,,2013-07-31 18:52:00,
2013-07-31 12:33:00,69.0,56.0,-100.00,NW,316,1.0,6.0,64,0.00,,,0.00,713.000000,,2013-07-31 19:33:00,
2013-07-31 12:43:00,69.0,56.0,-100.00,NW,316,1.0,6.0,64,0.00,,,0.00,713.000000,,2013-07-31 19:43:00,
2013-07-31 12:53:00,69.0,56.0,-100.00,NW,316,1.0,6.0,64,0.00,,,0.00,713.000000,,2013-07-31 19:53:00,
2013-07-31 13:01:00,66.0,51.0,-100.00,WNW,297,2.0,5.0,58,0.00,,,0.00,928.000000,,2013-07-31 20:01:00,
2013-07-31 13:32:00,66.0,51.0,-100.00,WNW,297,2.0,5.0,58,0.00,,,0.00,928.000000,,2013-07-31 20:32:00,
2013-07-31 13:43:00,66.0,51.0,-100.00,WNW,297,2.0,5.0,58,0.00,,,0.00,928.000000,,2013-07-31 20:43:00,
2013-07-31 13:53:00,66.0,51.0,-100.00,WNW,297,2.0,5.0,58,0.00,,,0.00,928.000000,,2013-07-31 20:53:00,
2013-07-31 14:01:00,70.0,58.0,-100.00,ENE,73,2.0,7.0,66,0.00,,,0.00,977.000000,,2013-07-31 21:01:00,
2013-07-31 14:32:00,70.0,58.0,-100.00,ENE,73,2.0,7.0,66,0.00,,,0.00,977.000000,,2013-07-31 21:32:00,
2013-07-31 14:43:00,70.0,58.0,-100.00,ENE,73,2.0,7.0,66,0.00,,,0.00,977.000000,,2013-07-31 21:43:00,
2013-07-31 14:53:00,70.0,58.0,-100.00,ENE,73,2.0,7.0,66,0.00,,,0.00,977.000000,,2013-07-31 21:53:00,
2013-07-31 15:01:00,67.0,56.0,-100.00,NNE,29,2.0,6.0,68,0.00,,,0.00,827.000000,,2013-07-31 22:01:00,
2013-07-31 15:22:00,67.0,56.0,-100.00,NNE,29,2.0,6.0,68,0.00,,,0.00,827.000000,,2013-07-31 22:22:00,
2013-07-31 15:33:00,67.0,56.0,-100.00,NNE,29,2.0,6.0,68,0.00,,,0.00,827.000000,,2013-07-31 22:33:00,
2013-07-31 15:43:00,67.0,56.0,-100.00,NNE,29,2.0,6.0,68,0.00,,,0.00,827.000000,,2013-07-31 22:43:00,
2013-07-31 15:53:00,67.0,56.0,-100.00,NNE,29,2.0,6.0,68,0.00,,,0.00,827.000000,,2013-07-31 22:53:00,
2013-07-31 16:01:00,66.0,55.0,-100.00,North,2,4.0,8.0,68,0.00,,,0.00,731.000000,,2013-07-31 23:01:00,
2013-07-31 16:32:00,66.0,55.0,-100.00,North,2,4.0,8.0,68,0.00,,,0.00,731.000000,,2013-07-31 23:32:00,
2013-07-31 16:42:00,66.0,55.0,-100.00,North,2,4.0,8.0,68,0.00,,,0.00,731.000000,,2013-07-31 23:42:00,
2013-07-31 16:52:00,66.0,55.0,-100.00,North,2,4.0,8.0,68,0.00,,,0.00,731.000000,,2013-07-31 23:52:00,
2013-07-31 17:01:00,65.0,55.0,-100.00,North,3,4.0,9.0,71,0.00,,,-99.99,522.000000,,2013-08-01 00:01:00,
2013-07-31 17:32:00,65.0,55.0,-100.00,North,3,4.0,9.0,71,0.00,,,-99.99,522.000000,,2013-08-01 00:32:00,
2013-07-31 17:43:00,65.0,55.0,-100.00,North,3,4.0,9.0,71,0.00,,,-99.99,522.000000,,2013-08-01 00:43:00,
2013-07-31 17:52:00,65.0,55.0,-100.00,North,3,4.0,9.0,71,0.00,,,-99.99,522.000000,,2013-08-01 00:52:00,
2013-07-31 18:01:00,64.0,58.0,-100.00,NNE,26,4.0,9.0,82,0.00,,,0.00,242.000000,,2013-08-01 01:01:00,
2013-07-31 18:33:00,64.0,58.0,-100.00,NNE,26,4.0,9.0,82,0.00,,,0.00,242.000000,,2013-08-01 01:33:00,
2013-07-31 18:43:00,64.0,58.0,-100.00,NNE,26,4.0,9.0,82,0.00,,,0.00,242.000000,,2013-08-01 01:43:00,
2013-07-31 18:53:00,64.0,58.0,-100.00,NNE,26,4.0,9.0,82,0.00,,,0.00,242.000000,,2013-08-01 01:53:00,
2013-07-31 19:01:00,60.0,56.0,-100.00,NE,45,7.0,11.0,86,0.00,,,0.00,160.000000,,2013-08-01 02:01:00,
2013-07-31 19:22:00,60.0,56.0,-100.00,NE,45,7.0,11.0,86,0.00,,,0.00,160.000000,,2013-08-01 02:22:00,
2013-07-31 19:32:00,60.0,56.0,-100.00,NE,45,7.0,11.0,86,0.00,,,0.00,160.000000,,2013-08-01 02:32:00,
2013-07-31 19:43:00,60.0,56.0,-100.00,NE,45,7.0,11.0,86,0.00,,,0.00,160.000000,,2013-08-01 02:43:00,
2013-07-31 19:52:00,60.0,56.0,-100.00,NE,45,7.0,11.0,86,0.00,,,0.00,160.000000,,2013-08-01 02:52:00,
2013-07-31 20:01:00,57.0,56.0,-100.00,West,261,4.0,12.0,96,0.00,,,0.00,169.000000,,2013-08-01 03:01:00,
2013-07-31 20:32:00,57.0,56.0,-100.00,West,261,4.0,12.0,96,0.00,,,0.00,169.000000,,2013-08-01 03:32:00,
2013-07-31 20:43:00,57.0,56.0,-100.00,West,261,4.0,12.0,96,0.00,,,0.00,169.000000,,2013-08-01 03:43:00,
2013-07-31 20:53:00,57.0,56.0,-100.00,West,261,4.0,12.0,96,0.00,,,0.00,169.000000,,2013-08-01 03:53:00,
2013-07-31 21:01:00,57.0,57.0,-100.00,WSW,242,5.0,17.0,100,0.00,,,0.00,64.000000,,2013-08-01 04:01:00,
2013-07-31 21:33:00,57.0,57.0,-100.00,WSW,242,5.0,17.0,100,0.00,,,0.00,64.000000,,2013-08-01 04:33:00,
2013-07-31 21:43:00,57.0,57.0,-100.00,WSW,242,5.0,17.0,100,0.00,,,0.00,64.000000,,2013-08-01 04:43:00,
2013-07-31 21:53:00,57.0,57.0,-100.00,WSW,242,5.0,17.0,100,0.00,,,0.00,64.000000,,2013-08-01 04:53:00,
2013-07-31 22:01:00,54.0,54.0,-100.00,SSW,202,9.0,16.0,99,0.00,,,0.00,20.000000,,2013-08-01 05:01:00,
2013-07-31 22:33:00,54.0,54.0,-100.00,SSW,202,9.0,16.0,99,0.00,,,0.00,20.000000,,2013-08-01 05:33:00,
2013-07-31 22:43:00,54.0,54.0,-100.00,SSW,202,9.0,16.0,99,0.00,,,0.00,20.000000,,2013-08-01 05:43:00,
2013-07-31 22:53:00,54.0,54.0,-100.00,SSW,202,9.0,16.0,99,0.00,,,0.00,20.000000,,2013-08-01 05:53:00,
2013-07-31 23:01:00,52.0,52.0,-100.00,SSW,203,9.0,13.0,100,0.02,,,0.02,0.000000,,2013-08-01 06:01:00,
2013-07-31 23:33:00,52.0,52.0,-100.00,SSW,203,9.0,13.0,100,0.02,,,0.02,0.000000,,2013-08-01 06:33:00,
2013-07-31 23:43:00,52.0,52.0,-100.00,SSW,203,9.0,13.0,100,0.02,,,0.02,0.000000,,2013-08-01 06:43:00,
2013-07-31 23:52:00,52.0,52.0,-100.00,SSW,203,9.0,13.0,100,0.02,,,0.02,0.000000,,2013-08-01 06:52:00,